Location: Morisset
(33.1080°S, 151.4871°E)
Time: 09:11:41
(UTC+00:00)

FALCON 9 DEB - Pass Details

Date: 29 October 2020
Orbit: 378 x 396 km, 53.0° (Epoch: 27 November)

Event Time Altitude Azimuth Distance (km) Brightness Sun altitude
Exits shadow 17:32:15 52° 329° (NNW) 487 3.0 -17.1°
Maximum altitude 17:32:55 81° 47° (NE) 395 2.8 -16.9°
Drops below altitude 10° 17:36:06 10° 134° (SE) 1,422 7.0 -16.4°
Sets 17:38:11 0° 135° (SE) 2,286 8.3 -16.0°
